DateTime,F1_A11,F1_S11,BsB_S11,BsG_S11,BsR_S11,BbsB_S11,BbsG_S11,BbsR_S11,BaB_A11,BaG_A11,BaR_A11,T_S11,U_S11,P_S11,T1_A11
2016-01-11T00:00:00Z,0000380,21000600,,,,,,,,,,25.5,00.0,0643.8,34.3
2016-01-11T00:01:00Z,0000380,21000600,,,,,,,,,,25.5,00.0,0643.9,34.3
2016-01-11T00:02:00Z,0000380,21000600,,,,,,,,,,25.5,00.0,0643.9,34.3
2016-01-11T00:03:00Z,0000380,61000600,,,,,,,,,,25.5,00.0,0643.9,34.3
2016-01-11T00:04:00Z,0000380,41000600,0000.98,0000.55,0000.30,0000.05,0000.34,0000.02,0000.20,0000.03,0000.01,25.5,00.0,0644.6,34.3
2016-01-11T00:05:00Z,0000380,01000600,0000.31,-000.02,0000.05,-000.15,0000.28,-000.08,0000.14,0000.10,0000.26,25.5,00.0,0644.7,34.3
2016-01-11T00:06:00Z,0000380,01000600,0001.18,0000.68,0000.25,0000.03,0000.41,-000.28,-000.10,-000.00,-000.30,25.5,00.0,0644.7,34.3
2016-01-11T00:07:00Z,0000380,01000600,0000.48,0000.14,0000.11,0000.21,0000.31,-000.02,0000.21,0000.14,0000.07,25.5,00.0,0644.6,34.3
2016-01-11T00:08:00Z,0000380,01000600,0000.44,0000.15,-000.12,-000.15,-000.11,0000.07,0000.02,-000.03,0000.11,25.6,00.0,0644.6,34.3
2016-01-11T00:09:00Z,0000380,01000600,-000.04,0001.54,0000.20,-000.47,0000.26,-000.07,0000.16,0000.10,0000.01,25.6,00.0,0644.6,34.3
2016-01-11T00:10:00Z,0000380,01000600,-000.74,0000.49,0000.03,0000.57,0000.16,-000.07,0000.01,0000.11,-000.02,25.7,00.0,0644.7,34.3
2016-01-11T00:11:00Z,0000380,01000600,0001.39,0000.02,-000.07,0000.67,-000.11,-000.25,0000.12,0000.02,0000.14,25.7,00.0,0644.7,34.3
2016-01-11T00:12:00Z,0000380,01000600,0001.33,0000.49,0000.44,0000.54,0000.39,0000.05,0000.15,0000.27,0000.03,25.7,00.0,0644.8,34.3
2016-01-11T00:13:00Z,0000380,01000600,0000.29,0000.14,0000.10,-000.07,0000.44,-000.13,0000.02,-000.03,0000.10,25.7,00.0,0644.8,34.3
2016-01-11T00:14:00Z,0000380,01000600,0000.99,0000.34,-000.03,0000.13,0000.08,-000.21,-000.06,-000.12,0000.04,25.7,00.0,0644.8,34.3
2016-01-11T00:15:00Z,0000380,01000600,0000.54,0001.01,0000.22,0000.21,-000.05,0000.21,0000.16,0000.02,0000.04,25.6,00.0,0644.8,34.3
2016-01-11T00:16:00Z,0000380,01000600,0000.21,0000.11,-000.17,-000.07,0000.46,-000.03,0000.02,0000.29,0000.37,25.6,00.0,0644.8,34.3
2016-01-11T00:17:00Z,0000380,01000600,-000.42,0000.61,0000.84,-000.07,-000.08,-000.16,-000.18,-000.00,-000.21,25.6,00.0,0644.9,34.3
2016-01-11T00:18:00Z,0000380,01000600,0000.99,0000.83,0000.02,-000.20,0000.15,0000.02,0000.30,0000.03,-000.02,25.5,00.0,0644.9,34.3
2016-01-11T00:19:00Z,0000380,01000600,0000.83,0000.47,-000.02,0000.56,0000.16,-000.23,0000.20,0000.14,0000.01,25.5,00.0,0644.9,34.3
2016-01-11T00:20:00Z,0000380,01000600,0000.77,0000.09,0000.11,-000.16,0000.31,-000.13,-000.20,0000.02,-000.17,25.5,00.0,0644.9,34.3
2016-01-11T00:21:00Z,0000380,01000600,0000.83,-000.10,0000.27,0000.36,0000.44,-000.11,-000.00,0000.02,0000.59,25.5,00.0,0644.9,34.3
2016-01-11T00:22:00Z,0000380,01000600,0000.36,0000.64,0000.40,0000.16,0000.36,0000.05,0000.25,-000.01,-000.15,25.5,00.0,0644.9,34.3
2016-01-11T00:23:00Z,0000380,01000600,0000.25,0000.47,0000.31,0000.49,0000.05,-000.15,0000.09,0000.04,0000.28,25.5,00.0,0644.9,34.3
2016-01-11T00:24:00Z,0000380,01000600,0000.43,0000.24,0000.02,0000.46,-000.05,-000.41,-000.03,0000.15,-000.19,25.6,00.0,0644.9,34.3
2016-01-11T00:25:00Z,0000380,01000600,0000.32,0000.00,0000.11,-000.25,0000.52,-000.25,0000.01,-000.00,0000.04,25.7,00.0,0644.9,34.3
2016-01-11T00:26:00Z,0000380,01000600,-000.04,0000.39,0000.53,-000.07,-000.26,-000.13,0000.05,0000.02,0000.02,25.7,00.0,0644.9,34.3
2016-01-11T00:27:00Z,0000380,01000600,0000.23,0000.45,0000.26,-000.21,0000.36,-000.25,0000.12,0000.12,-000.00,25.7,00.0,0645.0,34.3
2016-01-11T00:28:00Z,0000380,01000600,0000.80,0000.12,-000.24,0000.29,0000.36,-000.41,0000.12,0000.14,0000.00,25.7,00.0,0645.0,34.3
2016-01-11T00:29:00Z,0000380,01000600,0000.71,0000.34,-000.15,0000.28,0000.31,-000.03,-000.05,0000.15,0000.21,25.7,00.0,0645.0,34.3
2016-01-11T00:30:00Z,0000380,01000600,0000.85,0000.09,0000.37,0000.26,-000.24,-000.20,0000.07,-000.06,0000.13,25.6,00.0,0645.0,34.3
2016-01-11T00:31:00Z,0000380,01000600,0000.84,0000.25,0000.49,0000.41,-000.36,0000.20,0000.11,0000.06,-000.07,25.6,00.0,0645.0,34.3
2016-01-11T00:32:00Z,0000380,01000600,0000.60,0000.36,-000.18,0000.26,0000.63,-000.03,-000.01,0000.01,0000.21,25.5,00.0,0645.0,34.3
2016-01-11T00:33:00Z,0000380,01000600,0000.96,0000.66,0000.23,0000.18,0000.73,-000.10,0000.15,0000.04,-000.01,25.5,00.0,0645.0,34.3
2016-01-11T00:34:00Z,0000380,01000600,0001.34,0000.50,0000.02,0000.29,0000.26,-000.10,0000.04,0000.05,0000.07,25.5,00.0,0645.0,34.3
2016-01-11T00:35:00Z,0000380,01000600,0000.90,0000.28,0000.18,0000.34,0000.28,0000.02,0000.03,0000.07,-000.33,25.5,00.0,0645.0,34.3
2016-01-11T00:36:00Z,0000380,01000600,0000.95,0000.74,-000.13,0000.18,0000.49,-000.26,0000.01,0000.03,0000.20,25.5,00.0,0645.0,34.3
2016-01-11T00:37:00Z,0000380,01000600,-000.38,0000.65,-000.25,-000.18,0000.33,-000.39,0000.21,0000.10,0000.32,25.5,00.0,0645.0,34.3
2016-01-11T00:38:00Z,0000380,01000600,0000.27,0000.57,0000.20,0000.20,0000.28,-000.36,-000.00,0000.08,-000.20,25.5,00.0,0644.9,34.3
2016-01-11T00:39:00Z,0000380,01000600,0001.11,-000.25,0000.04,0000.33,0000.15,-000.02,0000.05,0000.07,0000.01,25.5,00.0,0644.9,34.3
2016-01-11T00:40:00Z,0000380,01000600,-000.02,0000.27,-000.03,0000.18,0000.24,0000.05,0000.15,-000.01,0000.21,25.5,00.0,0644.9,34.3
2016-01-11T00:41:00Z,0000380,01000600,0000.45,0000.58,-000.28,0000.31,0000.20,-000.25,0000.06,0000.08,-000.04,25.6,00.0,0645.0,34.3
2016-01-11T00:42:00Z,0000380,01000600,0000.70,0000.20,0000.17,0000.57,0000.20,0000.02,-000.13,-000.09,-000.03,25.6,00.0,0645.0,34.3
2016-01-11T00:43:00Z,0000380,01000600,0000.59,0000.54,-000.18,0000.38,0000.33,-000.20,0000.10,0000.15,0000.23,25.7,00.0,0645.0,34.3
2016-01-11T00:44:00Z,0000380,01000600,0001.04,0000.79,-000.17,0000.36,0000.49,-000.23,-000.03,-000.00,0000.15,25.7,00.0,0645.0,34.3
2016-01-11T00:45:00Z,0000380,01000600,0000.02,0000.43,-000.21,0000.65,-000.03,-000.49,0000.19,0000.24,-000.10,25.6,00.0,0645.0,34.3
2016-01-11T00:46:00Z,0000380,01000600,0000.30,0000.93,0000.42,0000.64,-000.13,-000.21,-000.12,-000.05,-000.07,25.6,00.0,0645.0,34.3
2016-01-11T00:47:00Z,0000380,01000600,0000.68,0000.30,0000.04,-000.26,-000.05,-000.03,0000.18,0000.13,0000.08,25.6,00.0,0645.0,34.3
2016-01-11T00:48:00Z,0000380,01000600,0000.75,0000.58,0000.17,-000.41,0000.57,0000.08,0000.07,-000.06,-000.02,25.6,00.0,0645.0,34.3
2016-01-11T00:49:00Z,0000380,01000600,0000.53,-000.37,-000.30,0000.20,0000.55,-000.29,-000.14,0000.06,0000.03,25.5,00.0,0645.0,34.3
2016-01-11T00:50:00Z,0000380,01000600,0000.53,0000.69,-000.24,0000.00,-000.10,-000.23,0000.24,0000.05,-000.06,25.5,00.0,0645.0,34.3
2016-01-11T00:51:00Z,0000380,01000600,0000.18,0000.43,0000.14,0000.47,0000.13,-000.05,0000.08,0000.05,0000.31,25.5,00.0,0644.9,34.3
2016-01-11T00:52:00Z,0000380,01000600,0000.60,0000.10,0000.25,0000.13,0000.21,-000.13,0000.11,-000.05,0000.06,25.5,00.0,0644.9,34.3
2016-01-11T00:53:00Z,0000380,01000600,0000.25,0000.18,-000.02,0000.05,0000.29,-000.25,-000.04,0000.03,-000.16,25.5,00.0,0644.9,34.3
2016-01-11T00:54:00Z,0000380,01000600,0001.71,0000.11,-000.19,0000.51,0000.15,-000.23,0000.00,0000.23,0000.26,25.6,00.0,0644.9,34.3
2016-01-11T00:55:00Z,0000380,01000600,0000.28,0000.16,0000.00,0000.15,0000.37,-000.43,0000.07,-000.01,-000.17,25.7,00.0,0644.9,34.3
2016-01-11T00:56:00Z,0000380,01000600,0000.21,-000.05,0000.18,0000.18,0000.20,-000.18,0000.02,-000.04,0000.13,25.7,00.0,0644.9,34.3
2016-01-11T00:57:00Z,0000380,41000600,,,,,,,,,,,,0644.9,34.3
2016-01-11T00:58:00Z,0000380,61000600,,,,,,,,,,25.5,00.0,0644.1,34.3
2016-01-11T00:59:00Z,0000380,21000600,,,,,,,,,,25.5,00.0,0644.1,34.3
2016-01-11T01:00:00Z,0000380,21000600,,,,,,,,,,25.5,00.0,0644.1,34.3
2016-01-11T01:01:00Z,0000380,21000600,,,,,,,,,,25.5,00.0,0644.1,34.3
2016-01-11T01:02:00Z,0000380,21000600,,,,,,,,,,25.5,00.0,0644.1,34.3
2016-01-11T01:03:00Z,0000380,61000600,,,,,,,,,,25.5,00.0,0644.1,34.3
2016-01-11T01:04:00Z,0000380,41000600,0001.21,0000.70,0000.41,-000.05,0000.36,-000.08,0000.02,-000.07,-000.36,25.5,00.0,0644.8,34.3
2016-01-11T01:05:00Z,0000380,01000600,-000.73,0000.21,-000.24,-000.02,0000.15,-000.11,0000.03,0000.22,0000.26,25.5,00.0,0644.9,34.3
2016-01-11T01:06:00Z,0000380,01000600,-000.82,0000.37,0000.17,-000.02,0000.24,0000.33,0000.07,-000.09,-000.27,25.5,00.0,0644.9,34.3
2016-01-11T01:07:00Z,0000380,01000600,0000.64,0000.97,0000.64,0000.25,0000.44,0000.47,0000.09,0000.13,0000.37,25.6,00.0,0644.8,34.3
2016-01-11T01:08:00Z,0000380,01000600,0000.29,0000.49,0000.71,0000.39,0000.26,0000.29,0000.10,-000.00,-000.26,25.6,00.0,0644.8,34.3
2016-01-11T01:09:00Z,0000380,01000600,0001.40,0000.46,0000.55,0000.56,-000.20,0000.00,-000.03,0000.14,0000.35,25.7,00.0,0644.7,34.3
2016-01-11T01:10:00Z,0000380,01000600,0001.86,0000.79,-000.07,0000.46,0000.26,-000.21,0000.00,-000.01,-000.16,25.7,00.0,0644.7,34.3
2016-01-11T01:11:00Z,0000380,01000600,0000.64,0000.40,0000.05,0000.47,0000.44,-000.03,0000.05,0000.06,0000.07,25.7,00.0,0644.6,34.3
2016-01-11T01:12:00Z,0000380,01000600,0000.26,0000.20,0000.17,0000.08,0000.59,0000.02,0000.24,0000.08,0000.02,25.8,00.0,0644.7,34.3
2016-01-11T01:13:00Z,0000380,01000600,0000.40,-000.02,0000.42,0000.26,0000.24,0000.57,-000.07,0000.08,0000.02,25.7,00.0,0644.7,34.3
2016-01-11T01:14:00Z,0000380,01000600,0000.59,0000.27,0000.17,0000.34,0000.15,0000.02,0000.08,0000.06,-000.03,25.7,00.0,0644.7,34.3
2016-01-11T01:15:00Z,0000380,01000600,0000.89,0000.55,0000.47,0000.51,0000.47,0000.31,0000.06,-000.05,0000.38,25.7,00.0,0644.6,34.3
2016-01-11T01:16:00Z,0000380,01000600,-000.02,0000.37,0000.18,0000.10,0000.36,0000.31,-000.06,0000.06,-000.32,25.7,00.0,0644.5,34.3
2016-01-11T01:17:00Z,0000380,01000600,0000.94,0001.26,0000.46,0000.70,0000.67,0000.11,0000.19,0000.14,-000.05,25.6,00.0,0644.5,34.3
2016-01-11T01:18:00Z,0000380,01000600,0001.06,0000.37,0000.40,0000.38,0000.23,0000.13,-000.05,0000.01,0000.05,25.6,00.0,0644.5,34.3
2016-01-11T01:19:00Z,0000380,01000600,0000.78,0000.20,0000.20,0000.25,0000.03,0000.34,0000.04,0000.02,0000.13,25.6,00.0,0644.5,34.3
2016-01-11T01:20:00Z,0000380,01000600,-000.08,0000.34,0000.22,0000.51,0000.36,0000.34,0000.01,0000.02,-000.09,25.6,00.0,0644.6,34.3
2016-01-11T01:21:00Z,0000380,01000600,0000.64,0000.66,0000.74,0000.20,-000.44,0000.16,0000.11,-000.01,0000.04,25.6,00.0,0644.7,34.3
2016-01-11T01:22:00Z,0000380,01000600,0000.45,0000.70,0000.45,-000.15,-000.10,0000.25,0000.03,0000.05,0000.12,25.6,00.0,0644.7,34.3
2016-01-11T01:23:00Z,0000380,01000600,0000.00,0001.16,-000.07,0000.08,0000.28,0000.21,0000.01,0000.01,-000.00,25.6,00.0,0644.7,34.3
2016-01-11T01:24:00Z,0000380,01000600,0001.44,0000.23,0000.02,0000.64,0000.39,0000.05,-000.04,0000.05,-000.03,25.7,00.0,0644.7,34.3
2016-01-11T01:25:00Z,0000380,01000600,0000.83,0001.13,0000.23,0000.11,-000.05,0000.00,0000.12,-000.04,0000.23,25.7,00.0,0644.8,34.3
2016-01-11T01:26:00Z,0000380,01000600,0000.46,0000.74,0000.46,0000.46,0000.02,-000.08,0000.05,0000.13,-000.23,25.7,00.0,0644.8,34.3
2016-01-11T01:27:00Z,0000380,01000600,0000.81,0000.02,0000.61,0000.51,-000.24,0000.23,0000.09,-000.02,0000.44,25.7,00.0,0644.8,34.3
2016-01-11T01:28:00Z,0000380,01000600,0001.17,0000.67,-000.20,0000.16,-000.08,0000.39,-000.03,0000.18,-000.00,25.7,00.0,0644.8,34.3
2016-01-11T01:29:00Z,0000380,01000600,0001.45,0000.44,0000.42,-000.11,0000.02,-000.05,0000.21,0000.13,0000.02,25.7,00.0,0644.7,34.3
2016-01-11T01:30:00Z,0000380,01000600,0000.38,0000.93,0000.07,-000.05,0000.15,0000.03,0000.10,0000.08,0000.30,25.6,00.0,0644.7,34.3
2016-01-11T01:31:00Z,0000380,01000600,0001.28,0000.36,0000.57,0001.16,-000.24,0000.15,0000.05,0000.02,-000.40,25.6,00.0,0644.7,34.3
2016-01-11T01:32:00Z,0000380,01000600,0001.33,0000.40,-000.17,0000.64,0000.37,0000.15,0000.04,0000.13,0000.25,25.6,00.0,0644.7,34.3
2016-01-11T01:33:00Z,0000380,01000600,0000.55,0000.75,0000.37,0000.51,0000.46,0000.03,0000.05,0000.03,0000.07,25.5,00.0,0644.7,34.3
2016-01-11T01:34:00Z,0000380,01000600,0001.86,0000.61,0000.51,0000.20,-000.15,0000.11,0000.06,0000.02,-000.17,25.5,00.0,0644.6,34.3
2016-01-11T01:35:00Z,0000380,01000600,0001.01,0000.95,0000.48,0000.05,0000.31,0000.13,0000.01,0000.02,0000.20,25.5,00.0,0644.5,34.3
2016-01-11T01:36:00Z,0000380,01000600,0000.97,-000.07,0000.59,-000.11,0000.00,0000.21,-000.02,-000.02,-000.03,25.5,00.0,0644.5,34.3
2016-01-11T01:37:00Z,0000380,01000600,0000.74,0000.99,0000.52,0000.08,0000.62,0000.08,-000.07,0000.06,0000.07,25.5,00.0,0644.5,34.3
2016-01-11T01:38:00Z,0000380,01000600,0000.36,0000.51,0000.66,0000.36,0000.16,0000.47,0000.06,0000.04,0000.05,25.6,00.0,0644.4,34.3
2016-01-11T01:39:00Z,0000380,01000600,0001.51,0000.32,0000.56,0000.05,0000.47,-000.05,0000.26,0000.06,-000.03,25.6,00.0,0644.4,34.3
2016-01-11T01:40:00Z,0000380,01000600,0001.71,0000.87,0000.09,0000.18,-000.15,0000.08,-000.07,0000.03,0000.13,25.7,00.0,0644.4,34.3
2016-01-11T01:41:00Z,0000380,01000600,0000.59,0000.67,0000.82,0001.28,0000.16,0000.41,0000.05,-000.09,0000.16,25.7,00.0,0644.3,34.3
2016-01-11T01:42:00Z,0000380,01000600,0000.66,0000.13,0000.56,0000.13,0000.29,-000.02,0000.13,0000.08,-000.18,25.7,00.0,0644.3,34.3
2016-01-11T01:43:00Z,0000380,01000600,0000.66,0000.07,0000.16,0000.36,-000.13,0000.44,0000.00,0000.10,0000.06,25.7,00.0,0644.3,34.3
2016-01-11T01:44:00Z,0000380,01000600,0000.92,0000.37,0000.59,-000.02,0000.10,0000.56,-000.03,-000.09,0000.02,25.7,00.0,0644.3,34.3
2016-01-11T01:45:00Z,0000380,01000600,0000.47,0001.14,0000.62,0000.15,0000.36,0000.47,0000.02,0000.01,-000.06,25.6,00.0,0644.3,34.3
2016-01-11T01:46:00Z,0000380,01000600,0001.04,0000.65,0000.24,-000.16,0000.00,-000.02,0000.06,0000.15,0000.14,25.6,00.0,0644.3,34.3
2016-01-11T01:47:00Z,0000380,01000600,0000.99,0000.54,0000.60,0000.51,0000.55,0000.52,0000.07,0000.07,-000.23,25.6,00.0,0644.3,34.3
2016-01-11T01:48:00Z,0000380,01000600,0000.20,0000.11,0000.52,0000.87,0000.05,0000.29,-000.12,0000.11,0000.06,25.5,00.0,0644.4,34.3
2016-01-11T01:49:00Z,0000380,01000600,0001.57,0000.58,0000.11,0000.46,0000.59,0000.03,-000.01,-000.13,0000.03,25.5,00.0,0644.5,34.3
2016-01-11T01:50:00Z,0000380,01000600,0000.07,0000.29,0000.20,0000.69,-000.11,0000.23,0000.25,0000.04,0000.01,25.5,00.0,0644.5,34.3
2016-01-11T01:51:00Z,0000380,01000600,0000.90,0000.69,0000.48,0000.54,-000.23,0000.07,-000.12,0000.10,0000.19,25.5,00.0,0644.4,34.3
2016-01-11T01:52:00Z,0000380,01000600,0001.40,0000.52,0000.70,0000.56,0000.31,0000.61,0000.25,-000.10,-000.05,25.5,00.0,0644.3,34.3
2016-01-11T01:53:00Z,0000380,01000600,0001.47,0000.26,-000.04,0000.33,0000.13,0000.26,0000.05,0000.17,0000.06,25.5,00.0,0644.2,34.3
2016-01-11T01:54:00Z,0000380,01000600,0000.07,0000.86,0000.23,0000.56,0000.33,0000.70,0000.02,0000.03,0000.09,25.6,00.0,0644.2,34.3
2016-01-11T01:55:00Z,0000380,01000600,0000.59,0000.38,0000.16,0000.13,0000.13,0000.28,0000.00,0000.05,-000.16,25.6,00.0,0644.2,34.3
2016-01-11T01:56:00Z,0000380,01000600,0000.27,0000.63,0000.07,-000.08,0000.51,0000.33,0000.08,-000.06,0000.08,25.7,00.0,0644.2,34.3
2016-01-11T01:57:00Z,0000380,41000600,,,,,,,,,,,,0644.2,34.3
2016-01-11T01:58:00Z,0000380,61000600,,,,,,,,,,25.5,00.0,0643.4,34.3
2016-01-11T01:59:00Z,0000380,21000600,,,,,,,,,,25.5,00.0,0643.3,34.3
2016-01-11T02:00:00Z,0000380,21000600,,,,,,,,,,25.5,00.0,0643.3,34.3
2016-01-11T02:01:00Z,0000380,21000600,,,,,,,,,,25.5,00.0,0643.3,34.3
2016-01-11T02:02:00Z,0000380,21000600,,,,,,,,,,25.5,00.0,0643.2,34.3
2016-01-11T02:03:00Z,0000380,61000600,,,,,,,,,,25.5,00.0,0643.2,34.3
2016-01-11T02:04:00Z,0000380,41000600,0000.85,0000.57,-000.04,0000.03,0000.03,0000.13,-000.02,-000.19,0000.11,25.5,00.0,0643.9,34.3
2016-01-11T02:05:00Z,0000380,01000600,0001.04,0000.58,0000.12,0000.56,0000.28,0000.08,-000.15,-000.00,-000.23,25.5,00.0,0644.0,34.3
2016-01-11T02:06:00Z,0000380,01000600,0001.68,0000.24,0000.08,0000.07,0000.23,0000.10,-000.05,0000.01,-000.02,25.5,00.0,0644.0,34.3
2016-01-11T02:07:00Z,0000380,01000600,0000.51,0000.51,0000.43,0000.11,0000.29,0000.31,0000.22,-000.07,-000.02,25.5,00.0,0643.9,34.3
2016-01-11T02:08:00Z,0000380,01000600,0000.89,0000.56,0000.16,0000.49,0000.26,0000.08,0000.05,0000.17,0000.58,25.6,00.0,0643.9,34.3
2016-01-11T02:09:00Z,0000380,01000600,0000.96,0000.75,0000.00,0000.10,0000.23,0000.25,-000.10,-000.27,-000.35,25.7,00.0,0643.8,34.3
2016-01-11T02:10:00Z,0000380,01000600,-000.53,0000.09,0000.29,0000.15,0000.47,0000.16,-000.09,0000.05,-000.29,25.7,00.0,0643.8,34.3
2016-01-11T02:11:00Z,0000380,01000600,0000.32,-000.20,0000.40,-000.08,-000.02,-000.03,0000.12,0000.11,0000.25,25.7,00.0,0643.8,34.3
2016-01-11T02:12:00Z,0000380,01000600,0000.46,-000.13,0000.12,0000.00,0000.11,0000.30,0000.14,-000.11,-000.07,25.7,00.0,0643.8,34.3
2016-01-11T02:13:00Z,0000380,01000600,0000.80,0000.12,0000.06,-000.05,-000.05,0000.31,-000.15,0000.08,-000.03,25.7,00.0,0643.8,34.3
2016-01-11T02:14:00Z,0000380,01000600,0001.49,0000.57,-000.14,0000.31,0000.24,-000.28,0000.12,0000.05,0000.12,25.6,00.0,0643.8,34.3
2016-01-11T02:15:00Z,0000380,01000600,0000.60,0000.09,-000.22,0000.07,0000.28,-000.29,-000.22,0000.05,0000.18,25.6,00.0,0643.8,34.3
2016-01-11T02:16:00Z,0000380,01000600,0000.44,0000.23,-000.05,0000.49,0000.31,0000.03,0000.10,-000.08,-000.34,25.6,00.0,0643.8,34.3
2016-01-11T02:17:00Z,0000380,01000600,0000.08,-000.47,0000.23,0000.44,0000.03,0000.29,-000.13,-000.11,-000.07,25.5,00.0,0643.7,34.3
2016-01-11T02:18:00Z,0000380,01000600,0000.53,0000.19,-000.26,-000.77,0000.28,0000.20,0000.17,0000.19,0000.31,25.5,00.0,0643.7,34.3
2016-01-11T02:19:00Z,0000380,01000600,0000.66,0000.04,-000.05,0000.90,0000.70,0000.39,-000.03,-000.00,-000.12,25.5,00.0,0643.7,34.3
2016-01-11T02:20:00Z,0000380,01000600,-000.51,-000.18,0000.81,0000.74,-000.13,0000.28,-000.11,0000.05,0000.07,25.5,00.0,0643.8,34.3
2016-01-11T02:21:00Z,0000380,01000600,0000.14,0000.03,0000.05,-000.15,0000.60,0000.10,-000.01,-000.13,0000.03,25.5,00.0,0643.8,34.3
2016-01-11T02:22:00Z,0000380,01000600,0000.45,-000.18,0000.35,0000.56,-000.18,0000.25,0000.12,-000.04,-000.08,25.5,00.0,0643.8,34.3
2016-01-11T02:23:00Z,0000380,01000600,0001.05,0000.00,-000.09,-000.08,0000.03,0000.18,-000.18,-000.05,0000.09,25.5,00.0,0643.7,34.3
2016-01-11T02:24:00Z,0000380,01000600,0000.10,0000.11,-000.15,0000.65,-000.13,0000.15,0000.19,-000.04,-000.16,25.5,00.0,0643.7,34.3
2016-01-11T02:25:00Z,0000380,01000600,-000.15,-000.05,0000.80,0000.28,-000.02,0000.03,-000.09,0000.11,-000.06,25.6,00.0,0643.7,34.3
2016-01-11T02:26:00Z,0000380,01000600,-000.01,0000.02,0000.41,-000.23,0000.51,0000.23,0000.04,-000.00,0000.23,25.6,00.0,0643.7,34.3
2016-01-11T02:27:00Z,0000380,01000600,0001.00,0001.02,-000.16,-000.03,0000.13,-000.16,-000.05,0000.13,-000.06,25.5,00.0,0643.8,34.3
2016-01-11T02:28:00Z,0000380,01000600,0001.11,-000.06,-000.47,-000.07,-000.10,-000.03,0000.03,-000.08,0000.00,25.5,00.0,0643.8,34.3
2016-01-11T02:29:00Z,0000380,01000600,0000.46,-000.16,0000.09,0000.61,0000.07,0000.18,0000.17,0000.16,0000.27,25.5,00.0,0643.8,34.3
2016-01-11T02:30:00Z,0000380,01000600,0000.09,-000.28,0000.27,0000.34,-000.46,0000.25,-000.03,0000.03,-000.22,25.5,00.0,0643.8,34.3
2016-01-11T02:31:00Z,0000380,01000600,-000.10,0000.31,0000.26,0000.29,0000.21,0000.18,-000.02,-000.09,-000.14,25.5,00.0,0643.8,34.3
2016-01-11T02:32:00Z,0000380,01000600,0000.95,0000.35,0000.00,0000.59,0000.20,0000.29,0000.08,0000.12,0000.24,25.5,00.0,0643.8,34.3
2016-01-11T02:33:00Z,0000380,01000600,0000.82,0000.41,-000.02,-000.18,0000.21,0000.02,-000.14,-000.01,-000.12,25.5,00.0,0643.8,34.3
2016-01-11T02:34:00Z,0000380,01000600,0000.51,-000.13,0000.35,0000.16,0000.03,-000.05,0000.14,-000.03,0000.03,25.5,00.0,0643.8,34.3
2016-01-11T02:35:00Z,0000380,01000600,0000.83,0000.05,0000.08,0000.47,0000.21,-000.13,0000.04,0000.06,-000.14,25.5,00.0,0643.8,34.3
2016-01-11T02:36:00Z,0000380,01000600,0000.18,0000.12,0000.08,0000.07,0000.02,0000.05,0000.01,-000.05,-000.09,25.5,00.0,0643.8,34.3
2016-01-11T02:37:00Z,0000380,01000600,-000.75,0000.37,0000.57,-000.43,0000.07,0000.11,-000.02,0000.01,0000.16,25.5,00.0,0643.8,34.3
2016-01-11T02:38:00Z,0000380,01000600,0000.41,0000.09,0000.04,0000.90,0000.08,-000.11,0000.03,0000.15,0000.52,25.5,00.0,0643.8,34.3
2016-01-11T02:39:00Z,0000380,01000600,0000.00,-000.68,0000.23,0000.54,0000.16,-000.13,0000.11,-000.04,-000.11,25.6,00.0,0643.8,34.3
2016-01-11T02:40:00Z,0000380,01000600,0000.49,-000.02,0000.36,0000.41,0000.57,0000.02,0000.05,0000.11,-000.18,25.6,00.0,0643.8,34.3
2016-01-11T02:41:00Z,0000380,01000600,0000.87,0000.11,0000.45,0000.72,0000.00,0000.05,-000.14,0000.05,0000.00,25.6,00.0,0643.8,34.3
2016-01-11T02:42:00Z,0000380,01000600,-000.22,-000.86,0000.11,0000.18,-000.11,0000.03,0000.21,-000.09,-000.04,25.6,00.0,0643.8,34.3
2016-01-11T02:43:00Z,0000380,01000600,-000.35,-000.16,-000.14,0000.07,0000.49,0000.15,-000.12,0000.21,0000.01,25.6,00.0,0643.8,34.3
2016-01-11T02:44:00Z,0000380,01000600,0000.60,0000.52,0000.09,0000.49,0000.05,0000.11,0000.08,-000.08,0000.24,25.5,00.0,0643.8,34.3
2016-01-11T02:45:00Z,0000380,01000600,0000.28,0000.52,0000.32,0001.03,-000.07,-000.08,-000.02,0000.02,-000.10,25.5,00.0,0643.8,34.3
2016-01-11T02:46:00Z,0000380,01000600,0000.96,0000.22,-000.05,0000.41,0000.03,-000.08,0000.10,-000.01,0000.01,25.5,00.0,0643.8,34.3
2016-01-11T02:47:00Z,0000380,01000600,0000.79,0000.22,-000.13,0000.29,0000.49,0000.13,-000.04,0000.02,-000.00,25.5,00.0,0643.8,34.3
2016-01-11T02:48:00Z,0000380,01000600,0001.05,0000.53,-000.13,0000.29,0000.21,-000.13,0000.24,0000.12,0000.08,25.5,00.0,0643.8,34.3
2016-01-11T02:49:00Z,0000380,01000600,0000.15,0000.12,0000.69,0000.33,-000.23,0000.46,-000.02,-000.16,-000.23,25.5,00.0,0643.9,34.3
2016-01-11T02:50:00Z,0000380,01000600,0000.17,-000.57,0000.02,0000.31,0000.05,-000.25,-000.02,0000.10,0000.44,25.5,00.0,0643.9,34.3
2016-01-11T02:51:00Z,0000380,01000600,0000.55,0000.08,0000.20,0000.08,0000.26,0000.07,0000.06,0000.00,-000.16,25.5,00.0,0643.9,34.3
2016-01-11T02:52:00Z,0000380,01000600,0000.02,-000.15,0000.43,0000.20,0000.34,0000.13,0000.07,-000.11,0000.13,25.5,00.0,0643.9,34.3
2016-01-11T02:53:00Z,0000380,01000600,-000.28,0000.26,0000.39,0000.47,-000.16,-000.15,-000.13,0000.24,-000.12,25.5,00.0,0643.9,34.3
2016-01-11T02:54:00Z,0000380,01000600,0000.43,-000.07,0000.18,-000.25,0000.16,-000.36,0000.22,-000.06,0000.23,25.5,00.0,0643.9,34.3
2016-01-11T02:55:00Z,0000380,01000600,0000.62,0000.10,-000.21,0000.41,0000.18,-000.44,0000.04,-000.00,-000.29,25.5,00.0,0643.9,34.3
2016-01-11T02:56:00Z,0000380,01000600,0001.29,-000.18,0000.08,0000.34,-000.54,0000.23,-000.16,0000.06,0000.10,25.5,00.0,0643.9,34.3
2016-01-11T02:57:00Z,0000380,41000600,,,,,,,,,,,,0643.9,34.3
2016-01-11T02:58:00Z,0000380,61000600,,,,,,,,,,25.3,00.0,0643.1,34.3
2016-01-11T02:59:00Z,0000380,21000600,,,,,,,,,,25.3,00.0,0643.1,34.3
2016-01-11T03:00:00Z,0000380,21000600,,,,,,,,,,25.3,00.0,0643.1,34.3
2016-01-11T03:01:00Z,0000380,21000600,,,,,,,,,,25.3,00.0,0643.1,34.3
2016-01-11T03:02:00Z,0000380,21000600,,,,,,,,,,25.3,00.0,0643.1,34.3
2016-01-11T03:03:00Z,0000380,61000600,,,,,,,,,,25.4,00.0,0643.1,34.3
2016-01-11T03:04:00Z,0000380,41000600,-000.13,-000.07,0000.31,0000.21,-000.05,0000.41,-000.01,-000.04,0000.22,25.5,00.0,0643.9,34.3
2016-01-11T03:05:00Z,0000380,01000600,0000.09,0000.60,-000.23,-000.28,0000.23,0000.43,-000.20,-000.00,-000.16,25.5,00.0,0643.9,34.3
2016-01-11T03:06:00Z,0000380,01000600,0000.19,-000.19,0001.13,0000.13,0000.13,0000.21,0000.16,0000.13,-000.17,25.5,00.0,0644.0,34.3
2016-01-11T03:07:00Z,0000380,01000600,0000.51,0001.02,0000.76,0000.54,0000.07,0000.00,0000.13,0000.07,0000.22,25.6,00.0,0644.0,34.3
2016-01-11T03:08:00Z,0000380,01000600,0000.30,0000.74,0000.17,-000.25,0000.11,0000.26,0000.03,-000.10,0000.36,25.7,00.0,0644.0,34.3
2016-01-11T03:09:00Z,0000380,01000600,0000.10,0000.44,0000.11,-000.39,0000.23,0000.00,-000.03,0000.08,-000.35,25.7,00.0,0644.0,34.3
2016-01-11T03:10:00Z,0000380,01000600,0000.96,0000.57,0000.27,-000.33,0000.20,-000.11,0000.20,0000.16,0000.25,25.7,00.0,0644.0,34.3
2016-01-11T03:11:00Z,0000380,01000600,0001.44,-000.32,0000.18,0000.08,0000.13,0000.28,-000.10,-000.01,-000.14,25.7,00.0,0644.1,34.3
2016-01-11T03:12:00Z,0000380,01000600,0000.15,0000.33,0000.17,0000.41,-000.21,0000.10,0000.12,-000.09,0000.05,25.7,00.0,0644.1,34.3